Flag for Greece Weather past 2 weeks in Heraklion, Crete, Greece

Now
59 °F

Sunny.


Feels Like: 56 °F
Forecast: 61 / 76 °F
Wind: 17 mph from South

Location: Heraklion Airport

Current Time: Apr 18, 2015 at 8:59:31 AM

Latest Report: Apr 18, 2015 at 8:20 AM


Visibility: 10 mi

Pressure: 30.12 "Hg

Humidity: 68%

Dew point: 48 °F

Location of HeraklionLocation

Historic Weather in Heraklion — Graph

°F

Heraklion temperature yesterday

Maximum temperature yesterday: 70 °F (at 10:50 AM)
Minimum temperature yesterday: 54 °F (at 12:50 AM)
Average temperature yesterday: 62 °F

Past Weeks' High & Low Weather Summary

 TemperatureHumidityPressure
High72 °F (Apr 6, 2:50 PM)100% (Apr 15, 11:50 PM)30.24 "Hg (Apr 15, 11:50 PM)
Low48 °F (Apr 5, 12:50 AM)36% (Apr 11, 1:50 PM)29.68 "Hg (Apr 6, 4:20 PM)
Average58 °F68%30.04 "Hg
* Reported Apr 3 7:20 AM — Apr 18 7:50 AM, Heraklion, Weather by CustomWeather, © 2015

Note: Actual official high and low records may vary slightly from our data, if they occured in-between our weather recording intervals... More about our weather records

Advertising

Heraklion weather history for previous 24 hours

 ConditionsComfort  
Time TempWeatherWind HumidityBarometerVisibility
7:50 AM
Sat, Apr 18
59 °FSunny.18 mph68%30.12 "Hg10 mi
7:20 AM57 °FClear.20 mph72%30.15 "Hg10 mi
6:50 AM57 °FClear.18 mph72%30.15 "Hg10 mi
5:50 AM57 °FClear.17 mph77%30.15 "Hg10 mi
4:50 AM57 °FClear.14 mph77%30.15 "Hg10 mi
3:50 AM57 °FClear.13 mph77%30.15 "Hg10 mi
2:50 AM57 °FClear.14 mph77%30.15 "Hg10 mi
2:20 AM57 °FClear.16 mph82%30.15 "Hg10 mi
1:50 AM57 °FClear.15 mph82%30.15 "Hg10 mi
1:20 AM59 °FClear.14 mph72%30.21 "Hg10 mi
12:50 AM59 °FClear.14 mph72%30.21 "Hg10 mi
12:20 AM59 °FClear.15 mph72%30.21 "Hg10 mi
11:50 PM
Fri, Apr 17
59 °FClear.15 mph72%30.21 "Hg10 mi
11:20 PM59 °FClear.15 mph72%30.21 "Hg10 mi
10:50 PM59 °FClear.13 mph72%30.21 "Hg10 mi
10:20 PM59 °FClear.6 mph72%30.18 "Hg10 mi
9:50 PM59 °FClear.8 mph72%30.18 "Hg10 mi
9:20 PM59 °FClear.5 mph72%30.18 "Hg10 mi
8:50 PM59 °FSunny.6 mph72%30.18 "Hg10 mi
8:20 PM64 °FSunny.1 mph68%30.18 "Hg10 mi
7:50 PM64 °FSunny.6 mph68%30.18 "Hg10 mi
7:20 PM68 °FSunny.5 mph64%30.18 "Hg10 mi
6:50 PM68 °FSunny.5 mph64%30.18 "Hg10 mi
6:20 PM68 °FSunny.7 mph64%30.18 "Hg10 mi
5:50 PM68 °FSunny.7 mph64%30.18 "Hg10 mi
5:20 PM70 °FSunny.7 mph57%30.21 "Hg10 mi
4:20 PM70 °FSunny.7 mph57%30.21 "Hg10 mi
3:50 PM70 °FSunny.7 mph57%30.21 "Hg10 mi
3:20 PM70 °FSunny.6 mph57%30.21 "Hg10 mi
2:50 PM70 °FSunny.7 mph57%30.21 "Hg10 mi
2:20 PM70 °FSunny.8 mph50%30.21 "Hg10 mi
1:50 PM70 °FSunny.6 mph50%30.21 "Hg10 mi
1:20 PM70 °FSunny.5 mph50%30.21 "Hg10 mi
12:50 PM70 °FSunny.5 mph50%30.21 "Hg10 mi
12:20 PM70 °FSunny.7 mph53%30.21 "Hg10 mi
11:50 AM70 °FSunny.6 mph53%30.21 "Hg10 mi
11:20 AM70 °FSunny.3 mph46%30.21 "Hg10 mi
10:50 AM70 °FSunny.3 mph46%30.21 "Hg10 mi
10:20 AM66 °FSunny.3 mph56%30.21 "Hg10 mi
9:50 AM66 °FSunny.9 mph56%30.21 "Hg10 mi
9:20 AM63 °FSunny.7 mph73%30.18 "Hg10 mi
8:50 AM63 °FSunny.8 mph73%30.18 "Hg10 mi
8:20 AM57 °FSunny.7 mph77%30.18 "Hg10 mi
Weather by CustomWeather, © 2015

See weather overviewHow to use our weather pages